Walhalla, ND

8:02 AM CDT on April 26, 2017 (GMT -0500)
Walhalla

Weather History for K96D - February, 2013

Change the Weather History Date:

Thursday, February 21, 2013

  Actual Average (KGAF) Record (KGAF)
Temperature  
Mean Temperature 8 °F -  
Max Temperature 15 °F 27 °F 48 °F (1984)
Min Temperature 1 °F 7 °F -31 °F (1966)
Degree Days  
Heating Degree Days 57    
Moisture  
Dew Point 2 °F    
Average Humidity 73    
Maximum Humidity 92    
Minimum Humidity 57    
Precipitation  
Precipitation 0.00 in - - ()
Sea Level Pressure  
Sea Level Pressure 30.31 in    
Wind  
Wind Speed 9 mph (SSE)    
Max Wind Speed 17 mph    
Max Gust Speed 22 mph    
Visibility 10 miles    
Events      
Averages and records for this station are not official NWS values.
T = Trace of Precipitation, MM = Missing Value Source: NWS Daily Summary

Daily Weather History Graph

Daily Weather History Graph

Search for Another Location

Airport or City:

Trip Planner

Search our weather history database for the weather conditions in past years. The results will help you decide how hot, cold, wet, or windy it might be!

Date:

Astronomy

Feb. 21, 2013 Rise Set
Actual Time 7:28 AM CST 6:02 PM CST
Civil Twilight 6:56 AM CST 6:34 PM CST
Nautical Twilight 6:19 AM CST 7:11 PM CST
Astronomical Twilight 5:43 AM CST 7:48 PM CST
Moon 2:05 PM CST (2/21) 4:48 AM CST (2/21)
Length of Visible Light 11h 38m
Length of Day
10h 34m
Waxing Gibbous, 84% of the Moon is Illuminated
Feb 21
Waxing Gibbous
Feb 25
Full
Mar 4
Last Quarter
Mar 11
New
Mar 19
First Quarter

Hourly Weather History & Observations

Time (CST) Temp. Windchill Dew Point Humidity Pressure Visibility Wind Dir Wind Speed Gust Speed Precip Events Conditions
12:15 AM 3.2 °F -7.8 °F -2.2 °F 78% 30.34 in - ESE 5.8 mph - N/A   Overcast
12:35 AM 3.2 °F -7.8 °F -2.2 °F 78% 30.34 in - SE 5.8 mph - N/A   Overcast
12:55 AM 5.0 °F -6.9 °F -2.2 °F 72% 30.34 in 10.0 mi SE 6.9 mph - N/A   Overcast
1:15 AM 5.0 °F -9.1 °F -2.2 °F 72% 30.34 in 10.0 mi SSE 9.2 mph - N/A   Overcast
1:35 AM 5.0 °F -10.0 °F -2.2 °F 72% 30.34 in 10.0 mi SSE 10.4 mph - N/A   Overcast
1:55 AM 5.0 °F -10.0 °F -2.2 °F 72% 30.34 in 10.0 mi SSE 10.4 mph - N/A   Overcast
2:15 AM 5.0 °F -10.0 °F -2.2 °F 72% 30.34 in 10.0 mi SSE 10.4 mph - N/A   Overcast
2:35 AM 5.0 °F -10.0 °F -2.2 °F 72% 30.35 in 10.0 mi SSE 10.4 mph - N/A   Overcast
2:55 AM 5.0 °F -10.8 °F -2.2 °F 72% 30.34 in 10.0 mi SSE 11.5 mph - N/A   Overcast
3:15 AM 5.0 °F -11.6 °F -2.2 °F 72% 30.34 in 10.0 mi SSE 12.7 mph - N/A   Overcast
3:35 AM 6.8 °F -8.6 °F -0.4 °F 72% 30.34 in 10.0 mi SSE 11.5 mph - N/A   Overcast
3:55 AM 6.8 °F -8.6 °F -0.4 °F 72% 30.34 in 10.0 mi SSE 11.5 mph 16.1 mph N/A   Overcast
4:15 AM 6.8 °F -5.9 °F -0.4 °F 72% 30.34 in 10.0 mi SSE 8.1 mph - N/A   Overcast
4:35 AM 6.8 °F -5.9 °F -0.4 °F 72% 30.34 in 10.0 mi SSE 8.1 mph - N/A   Overcast
4:55 AM 6.8 °F -6.9 °F -0.4 °F 72% 30.34 in 10.0 mi SE 9.2 mph - N/A   Overcast
5:15 AM 6.8 °F -8.6 °F -0.4 °F 72% 30.34 in 10.0 mi SE 11.5 mph - N/A   Overcast
5:55 AM 6.8 °F -7.8 °F -0.4 °F 72% 30.34 in 10.0 mi SE 10.4 mph - N/A   Overcast
6:15 AM 6.8 °F -7.8 °F -0.4 °F 72% 30.34 in 10.0 mi SE 10.4 mph - N/A   Overcast
6:35 AM 6.8 °F -6.9 °F -0.4 °F 72% 30.34 in 10.0 mi SE 9.2 mph - N/A   Overcast
6:55 AM 6.8 °F -7.8 °F -0.4 °F 72% 30.34 in 10.0 mi SE 10.4 mph - N/A   Overcast
7:15 AM 5.0 °F -8.1 °F -0.4 °F 78% 30.33 in 10.0 mi SE 8.1 mph - N/A   Overcast
7:35 AM 5.0 °F -10.0 °F -0.4 °F 78% 30.33 in 10.0 mi SE 10.4 mph - N/A   Overcast
7:55 AM 5.0 °F -9.1 °F -0.4 °F 78% 30.32 in 10.0 mi SSE 9.2 mph - N/A   Overcast
8:15 AM 5.0 °F -10.8 °F -0.4 °F 78% 30.32 in 10.0 mi SE 11.5 mph - N/A   Overcast
8:35 AM 5.0 °F -10.8 °F -0.4 °F 78% 30.33 in 10.0 mi SE 11.5 mph - N/A   Overcast
8:55 AM 6.8 °F -7.8 °F -0.4 °F 72% 30.34 in 10.0 mi SSE 10.4 mph - N/A   Overcast
9:15 AM 6.8 °F -8.6 °F -0.4 °F 72% 30.34 in 10.0 mi SSE 11.5 mph - N/A   Overcast
9:35 AM 6.8 °F -7.8 °F -0.4 °F 72% 30.35 in 10.0 mi SSE 10.4 mph - N/A   Overcast
9:55 AM 8.6 °F -6.3 °F -0.4 °F 67% 30.36 in 10.0 mi SSE 11.5 mph - N/A   Overcast
10:15 AM 8.6 °F -7.0 °F -0.4 °F 67% 30.36 in - South 12.7 mph - N/A   Overcast
10:35 AM 8.6 °F -6.3 °F -0.4 °F 67% 30.35 in - South 11.5 mph 20.7 mph N/A   Mostly Cloudy
10:55 AM 8.6 °F -9.5 °F -0.4 °F 67% 30.35 in - SSE 17.3 mph 21.9 mph N/A   Overcast
11:15 AM 10.4 °F -5.4 °F -0.4 °F 62% 30.34 in 10.0 mi SSE 13.8 mph 20.7 mph N/A   Overcast
11:35 AM 10.4 °F -6.0 °F -0.4 °F 62% 30.32 in 10.0 mi SSE 15.0 mph - N/A   Overcast
12:15 PM 10.4 °F -4.8 °F 1.4 °F 67% 30.32 in 10.0 mi SSE 12.7 mph - N/A   Scattered Clouds
12:35 PM 14.0 °F -0.8 °F 1.4 °F 57% 30.31 in 10.0 mi SSE 13.8 mph - N/A   Partly Cloudy
12:55 PM 14.0 °F 1.2 °F 1.4 °F 57% 30.31 in 10.0 mi SSE 10.4 mph - N/A   Partly Cloudy
1:15 PM 14.0 °F -2.0 °F 1.4 °F 57% 30.31 in 10.0 mi SSE 16.1 mph 19.6 mph N/A   Partly Cloudy
1:35 PM 14.0 °F 0.5 °F 1.4 °F 57% 30.31 in 10.0 mi SSE 11.5 mph - N/A   Partly Cloudy
1:55 PM 14.0 °F -0.8 °F 3.2 °F 62% 30.31 in - SSE 13.8 mph - N/A   Partly Cloudy
2:15 PM 14.0 °F -1.4 °F 3.2 °F 62% 30.31 in 10.0 mi SSE 15.0 mph - N/A   Mostly Cloudy
2:35 PM 14.0 °F -0.8 °F 3.2 °F 62% 30.30 in 10.0 mi SSE 13.8 mph - N/A   Scattered Clouds
2:55 PM 14.0 °F 2.0 °F 5.0 °F 67% 30.30 in 10.0 mi South 9.2 mph - N/A   Partly Cloudy
3:15 PM 14.0 °F -0.2 °F 5.0 °F 67% 30.30 in - SSE 12.7 mph - N/A   Scattered Clouds
3:35 PM 15.8 °F 3.4 °F 5.0 °F 62% 30.29 in - SSE 10.4 mph - N/A   Mostly Cloudy
3:55 PM 15.8 °F 4.2 °F 6.8 °F 68% 30.29 in 10.0 mi SSE 9.2 mph - N/A   Overcast
4:15 PM 15.8 °F 2.7 °F 6.8 °F 68% 30.28 in 10.0 mi SE 11.5 mph - N/A   Mostly Cloudy
4:35 PM 14.0 °F 2.9 °F 6.8 °F 73% 30.28 in 10.0 mi SE 8.1 mph - N/A   Partly Cloudy
4:55 PM 14.0 °F 2.9 °F 5.0 °F 67% 30.28 in 10.0 mi SSE 8.1 mph - N/A   Clear
5:15 PM 12.2 °F -1.0 °F 5.0 °F 73% 30.28 in 10.0 mi SE 10.4 mph - N/A   Clear
5:35 PM 10.4 °F -1.5 °F 5.0 °F 79% 30.28 in 10.0 mi SE 8.1 mph - N/A   Partly Cloudy
5:55 PM 10.4 °F -0.4 °F 5.0 °F 79% 30.27 in 10.0 mi SE 6.9 mph - N/A   Scattered Clouds
6:15 PM 8.6 °F -2.6 °F 5.0 °F 85% 30.28 in 10.0 mi SE 6.9 mph - N/A   Partly Cloudy
6:35 PM 8.6 °F -2.6 °F 5.0 °F 85% 30.27 in 10.0 mi SE 6.9 mph - N/A   Scattered Clouds
6:55 PM 10.4 °F -1.5 °F 6.8 °F 85% 30.27 in 10.0 mi SE 8.1 mph - N/A   Partly Cloudy
7:15 PM 10.4 °F -1.5 °F 6.8 °F 85% 30.27 in 10.0 mi SE 8.1 mph - N/A   Mostly Cloudy
7:35 PM 10.4 °F -1.5 °F 6.8 °F 85% 30.28 in 10.0 mi SE 8.1 mph - N/A   Mostly Cloudy
7:55 PM 10.4 °F -1.5 °F 6.8 °F 85% 30.27 in 10.0 mi SE 8.1 mph - N/A   Scattered Clouds
8:15 PM 10.4 °F 0.8 °F 5.0 °F 79% 30.27 in 10.0 mi SSE 5.8 mph - N/A   Mostly Cloudy
8:35 PM 10.4 °F 4.0 °F 5.0 °F 79% 30.26 in - SSW 3.5 mph - N/A   Overcast
8:55 PM 10.4 °F - 5.0 °F 79% 30.25 in 10.0 mi Calm Calm - N/A   Mostly Cloudy
9:15 PM 10.4 °F - 5.0 °F 79% 30.25 in - Calm Calm - N/A   Overcast
9:35 PM 8.6 °F - 3.2 °F 79% 30.25 in 10.0 mi Calm Calm - N/A   Overcast
9:55 PM 8.6 °F 0.1 °F 1.4 °F 73% 30.25 in 10.0 mi SSE 4.6 mph - N/A   Overcast
10:15 PM 6.8 °F - 1.4 °F 79% 30.24 in 10.0 mi Calm Calm - N/A   Overcast
10:35 PM 5.0 °F - 1.4 °F 85% 30.23 in 10.0 mi Calm Calm - N/A   Overcast
10:55 PM 5.0 °F - 1.4 °F 85% 30.23 in 10.0 mi Calm Calm - N/A   Mostly Cloudy
11:15 PM 1.4 °F - -0.4 °F 92% 30.22 in 10.0 mi Calm Calm - N/A   Mostly Cloudy
11:35 PM 1.4 °F -6.2 °F -0.4 °F 92% 30.21 in 10.0 mi North 3.5 mph - N/A   Mostly Cloudy
11:55 PM 1.4 °F - -0.4 °F 92% 30.21 in 10.0 mi Calm Calm - N/A   Mostly Cloudy